Погода в Хофе

Германия     50°18′59″N   11°54′07″E
В апреле 2022 года жителям России запретили посещать сайт meteo.paraplan.net по решению Генеральной прокуратуры. Аудитория сайта уменьшилась в 10 раз. Владельцы сайта не видят смысла в поддержке погодного сервера в таких условиях. Сайт будет закрыт в октябре.
темп.,
°C
ветер,
м/с
пор.,
м/с
влажн.,
%
обл.,
%
осадки,
мм/ч
давл.,
гПа
погр.,
м
29 сентября, чт
чт2923:00+5зюз2693100 0.1 1002169
02:00+5юз249496 0.3 1002114
05:00+5юз239298 0.3 100281
08:00+5юз249375 0.7 1003110
11:00+9юз347476 0.6 1003631
14:00+12зюз235299 0.8 10031590
17:00+11зюз1156100 0.1 10031196
20:00+7ююз0174100 0.2 100610
30 сентября, пт
пт3023:00+6ссв008096 0.0 100810
02:00+5всв008480 0.0 100910
05:00+4ююв118819 0.0 101010
08:00+5ююв118765 0.0 101217
11:00+10ююв227297 0.0 1012351
14:00+12ююв2362100 0.1 1012882
17:00+11юз226694 0.1 101229
20:00+9ююз237797 0.1 101465
1 октября, сб
сб123:00+7ю23935 0.0 101440
02:00+6ю23965 0.0 101557
05:00+5ю3597100 0.0 1014104
08:00+6ю31293100 0.0 1013456
11:00+10юз71472100 0.0 10111480
14:00+7юз71494100 2.0 10111008
17:00+8зюз71497100 1.1 10121021
20:00+9зюз71393100 1.6 10141000
2 октября, вс
вс223:00+8зюз61397100 0.0 1016864
02:00+9з61292100 0.3 1019979
05:00+7зюз5139327 0.1 1021618
08:00+8з61191100 0.1 1022779
11:00+9зюз41094100 0.1 1023799
14:00+11зюз6980100 0.1 1021954
17:00+12зюз4979100 0.0 1019926
20:00+11юз41286100 0.2 1018837
3 октября, пн
пн323:00+11зюз61395100 2.6 1017940
02:00+11з3798100 3.3 1017414
05:00+8з399544 0.0 1023453
08:00+7зсз499271 0.0 1023453
11:00+9сз5878100 0.1 1023964
14:00+10зсз587380 0.2 10231210
17:00+11сз596985 0.1 10231372
20:00+7зсз3108559 0.2 1025294